[[{"header":{"parameterUnit":"m.s-1","parameterCategory":1,"la1":30.2991,"la2":30.254,"lo1":-89.0895,"lo2":-89.0444,"dy":0.0017,"dx":0.0017,"nx":28,"ny":28,"refTime":"2024-06-07T09:00:00:Z","depth":0,"parameterNumber":2,"parameterNumberName":"U-component_of_WINDS"},"data":[0,0,0,0,0,0,0,0,0,0,0,0,0,0,0,0,0,0,0,0,0,0,0,0,0,0,0,0,0,0,0,0,0,0,0,0,0,0,0,0,0,0,0,0,0,0,0,0,0,0,0,0,0,0,0,0,0,0,1.4285,1.4285,0,1.4273,1.4273,1.4273,1.4207,1.4205,1.4204,1.4202,1.4193,1.4194,1.4195,0,0,0,0,0,0,0,0,0,0,0,0,0,1.4252,1.4253,1.4285,1.4285,1.4284,1.4273,1.4273,1.4273,1.4207,1.4205,1.4203,1.4201,1.4192,1.4194,1.4195,0,0,0,0,0,0,0,0,0,0,0,0,0,1.4256,1.4253,1.4285,1.425,1.4247,1.4273,1.4273,1.4273,1.4208,1.4205,1.4203,1.4201,1.4192,1.4194,1.4195,1.4254,0,0,1.4201,1.4202,0,0,0,0,0,0,0,0,1.4255,1.4257,1.4255,1.4253,1.4249,1.4239,1.4257,1.4267,1.4208,1.4223,1.4202,1.4199,1.421,1.421,1.4213,1.4254,1.4254,1.4201,1.4202,1.4203,1.4204,0,0,0,0,0,0,0,1.4255,1.4257,1.428,1.4256,1.4252,1.4236,1.4234,1.4259,1.423,1.4221,1.4216,1.4216,1.4208,1.4212,1.4213,1.4253,1.4201,1.4203,1.4204,1.4205,1.434,1.4342,0,0,0,0,0,0,1.426,1.4257,1.428,1.428,1.4246,1.4238,1.4236,1.4245,1.4229,1.4225,1.4218,1.4213,1.421,1.4211,1.4212,1.4279,1.4203,1.4205,1.4206,1.4338,1.4341,1.4343,0,0,0,0,0,0,1.4259,1.4262,1.4281,1.4267,1.4268,1.4241,1.4252,1.4246,1.4249,1.4227,1.4222,1.4227,1.4208,1.421,1.4244,1.4278,1.4206,1.4207,1.4335,1.4338,1.4342,1.4414,0,0,0,0,0,0,1.4258,1.4262,1.4285,1.4268,1.4269,1.4313,1.4254,1.4247,1.4252,1.4246,1.4234,1.423,1.4206,1.4241,1.4246,1.4279,1.4209,1.4331,1.4336,1.4341,1.4409,1.442,1.443,0,0,0,0,0,1.4257,1.4306,1.4286,1.4289,1.4296,1.4315,1.4315,1.4287,1.4255,1.4277,1.4263,1.423,1.4273,1.4246,1.425,1.4284,1.4329,1.4335,1.434,1.4404,1.4418,1.443,0,0,0,0,0,0,1.4329,1.4304,1.4281,1.4326,1.4323,1.4304,1.4331,1.4302,1.4309,1.4303,1.4267,1.4265,1.4304,1.4298,1.4267,1.434,1.4296,1.4302,1.4343,1.4356,1.4366,1.4367,1.421,0,0,0,0,0,1.435,1.4366,1.4344,1.4385,1.4385,1.4358,1.4365,1.4343,1.4339,1.4338,1.4325,1.4323,1.4336,1.4345,1.4356,1.4407,1.4404,1.4433,1.4444,1.4452,1.4459,1.4484,1.4497,1.4362,1.4362,1.4361,0,0,1.4393,1.4381,1.4394,1.4399,1.4394,1.4413,1.4358,1.438,1.4393,1.4341,1.4372,1.4363,1.4358,1.4401,1.4419,1.4397,1.4495,1.4459,1.4467,1.4468,1.4491,1.4504,1.4515,1.4365,1.4365,1.4364,0,0,1.4482,1.4475,1.4508,1.4504,1.4496,1.4478,1.4486,1.4471,1.4462,1.4492,1.4454,1.4469,1.4492,1.449,1.4492,1.4578,1.4548,1.4582,1.4637,1.4662,1.4673,1.4682,1.4712,1.4724,1.4588,1.4589,1.4589,0,1.4537,1.4562,1.4529,1.4553,1.4556,1.4508,1.4542,1.4539,1.4537,1.454,1.4514,1.4541,1.4535,1.4576,1.4596,1.46,1.4608,1.4584,1.4674,1.4683,1.4691,1.4719,1.4731,1.4593,1.4592,1.4592,1.4591,0,1.463,1.4648,1.4676,1.4673,1.4679,1.4708,1.4679,1.4689,1.4666,1.465,1.4681,1.4672,1.4679,1.4687,1.4665,1.4725,1.4711,1.468,1.4635,1.4709,1.4735,1.4745,1.4599,1.4597,1.4596,1.4595,0,0,1.4765,1.4741,1.4752,1.4749,1.4737,1.475,1.4777,1.4782,1.4792,1.4791,1.4812,1.4832,1.4803,1.4805,1.4782,1.4805,1.4872,1.4771,1.4771,1.479,1.4936,1.4959,1.4972,1.4852,1.4854,1.4856,1.4936,0,1.4849,1.4892,1.4862,1.491,1.4925,1.488,1.4902,1.4897,1.4883,1.4895,1.4879,1.4893,1.4854,1.4855,1.4875,1.486,1.4901,1.4854,1.4872,1.4873,1.4874,1.4986,1.5011,1.5087,1.4946,1.4948,1.4949,0,1.4953,1.4955,1.5005,1.4987,1.4993,1.5014,1.5016,1.5028,1.5021,1.5009,1.501,1.4981,1.5006,1.4961,1.4994,1.4963,1.4968,1.4962,1.4964,1.4965,1.4916,1.499,1.5111,1.5123,1.4965,1.4964,1.4963,0,1.5046,1.5061,1.5092,1.5091,1.5072,1.5088,1.5081,1.5071,1.5076,1.5078,1.5081,1.5086,1.509,1.5095,1.5068,1.5038,1.5104,1.5058,1.5095,1.5096,1.5112,1.5111,1.5236,1.5116,1.5115,1.5115,1.5115,0,1.5143,1.5175,1.5133,1.5152,1.5186,1.5151,1.5186,1.5174,1.5166,1.5182,1.5143,1.5159,1.5123,1.5135,1.5114,1.5145,1.5147,1.5138,1.5132,1.5141,1.5142,1.5145,1.5139,1.5118,1.5117,1.5117,1.5116,0,1.5253,1.5226,1.5256,1.5235,1.523,1.5256,1.5238,1.5255,1.5237,1.5258,1.5261,1.5234,1.5246,1.5219,1.5229,1.5215,1.5258,1.5243,1.526,1.5255,1.5294,1.5291,1.5425,1.544,1.531,1.5312,1.5313,0,1.5317,1.534,1.532,1.5327,1.5322,1.5335,1.5339,1.5305,1.5311,1.5304,1.5322,1.533,1.5335,1.5358,1.5339,1.5345,1.5331,1.5377,1.5332,1.534,1.5331,1.533,1.5332,1.5387,1.5389,1.539,1.5391,0,1.5433,1.5418,1.5425,1.5427,1.5433,1.5433,1.5431,1.544,1.5403,1.5412,1.5423,1.5427,1.5436,1.5445,1.5447,1.544,1.541,1.5405,1.5414,1.5424,1.5433,1.5428,1.5285,1.5403,1.5401,1.5401,1.54,1.54,1.5521,1.5539,1.5527,1.5536,1.553,1.5529,1.5543,1.5526,1.5535,1.5538,1.5518,1.5533,1.5525,1.5524,1.552,1.5532,1.5511,1.5524,1.5528,1.5531,1.5537,1.543,1.5532,1.5532,1.5532,1.5531,1.5531,0,1.5634,1.5624,1.5633,1.563,1.5637,1.5606,1.5601,1.561,1.5623,1.5617,1.5623,1.5635,1.5644,1.5625,1.5631,1.5644,1.563,1.5646,1.5645,1.5644,1.5556,1.5548,1.5657,1.5657,1.5657,1.5657,1.5657,1.5657,1.5694,1.5722,1.5706,1.5731,1.572,1.5734,1.5734,1.5733,1.5727,1.5743,1.5749,1.5736,1.5725,1.5729,1.5735,1.573,1.5733,1.5755,1.5744,1.5663,1.565,1.5639,1.563,1.5756,1.5756,1.5831,1.5832,1.5832]},{"header":{"parameterUnit":"m.s-1","parameterCategory":1,"la1":30.2991,"la2":30.254,"lo1":-89.0895,"lo2":-89.0444,"dy":0.0017,"dx":0.0017,"nx":28,"ny":28,"refTime":"2024-06-07T09:00:00:Z","depth":0,"parameterNumber":3,"parameterNumberName":"V-component_of_WINDS"},"data":[0,0,0,0,0,0,0,0,0,0,0,0,0,0,0,0,0,0,0,0,0,0,0,0,0,0,0,0,0,0,0,0,0,0,0,0,0,0,0,0,0,0,0,0,0,0,0,0,0,0,0,0,0,0,0,0,0,0,4.2018,4.2019,0,4.2115,4.2116,4.2117,4.2092,4.209,4.2089,4.2087,4.2181,4.2185,4.2189,0,0,0,0,0,0,0,0,0,0,0,0,0,4.1806,4.181,4.2017,4.2019,4.202,4.2115,4.2116,4.2117,4.2093,4.209,4.2088,4.2086,4.218,4.2185,4.219,0,0,0,0,0,0,0,0,0,0,0,0,0,4.19,4.1811,4.2017,4.2019,4.202,4.2114,4.2116,4.2118,4.2093,4.209,4.2087,4.2085,4.2178,4.2184,4.219,4.2287,0,0,4.221,4.2213,0,0,0,0,0,0,0,0,4.1894,4.1907,4.2018,4.2019,4.2021,4.2089,4.2076,4.2174,4.2094,4.2065,4.2087,4.2083,4.2152,4.216,4.2185,4.2291,4.2295,4.2211,4.2214,4.2217,4.2219,0,0,0,0,0,0,0,4.1888,4.1903,4.2056,4.2019,4.2021,4.2014,4.2024,4.2094,4.2123,4.2068,4.2066,4.2078,4.2152,4.2179,4.2187,4.2297,4.221,4.2216,4.222,4.2223,4.2487,4.249,0,0,0,0,0,0,4.1881,4.1898,4.2053,4.2059,4.1949,4.202,4.2031,4.207,4.2123,4.2128,4.2081,4.2077,4.2169,4.2179,4.219,4.2307,4.2217,4.2223,4.2227,4.2484,4.2488,4.2491,0,0,0,0,0,0,4.1876,4.1895,4.2049,4.1978,4.1997,4.2027,4.207,4.2073,4.2099,4.2132,4.2137,4.2103,4.2167,4.2181,4.2263,4.231,4.2226,4.2232,4.248,4.2485,4.249,4.2541,0,0,0,0,0,0,4.187,4.1893,4.1931,4.1979,4.2001,4.2122,4.2073,4.2077,4.2111,4.2107,4.2154,4.2159,4.2166,4.2254,4.227,4.2317,4.2237,4.2476,4.2483,4.2488,4.2535,4.2547,4.2557,0,0,0,0,0,4.1863,4.1941,4.1933,4.1952,4.2049,4.2125,4.2137,4.2145,4.2115,4.2153,4.2174,4.2158,4.2302,4.2263,4.228,4.233,4.2473,4.2481,4.2488,4.253,4.2545,4.2557,0,0,0,0,0,0,4.1895,4.1947,4.1939,4.2035,4.2076,4.2121,4.2168,4.216,4.2209,4.2203,4.2209,4.222,4.2304,4.2325,4.228,4.2426,4.2383,4.2394,4.241,4.2423,4.2434,4.2427,4.2242,0,0,0,0,0,4.1914,4.1973,4.2014,4.2094,4.2116,4.2139,4.2172,4.2175,4.2217,4.2233,4.226,4.23,4.2354,4.239,4.2442,4.2538,4.2548,4.2581,4.2592,4.2601,4.261,4.2663,4.2678,4.2515,4.2515,4.2515,0,0,4.1952,4.1988,4.2024,4.2102,4.2134,4.2193,4.2153,4.2217,4.2261,4.2242,4.2322,4.2344,4.2388,4.2479,4.252,4.2499,4.2657,4.261,4.2617,4.2621,4.2672,4.2687,4.2701,4.252,4.2519,4.2518,0,0,4.2053,4.2086,4.2157,4.2191,4.224,4.2256,4.2273,4.2319,4.2333,4.2414,4.2401,4.2453,4.2546,4.2579,4.2608,4.2722,4.2708,4.2738,4.2795,4.2846,4.2859,4.287,4.2911,4.2926,4.2748,4.2748,4.2748,0,4.2094,4.2185,4.2194,4.226,4.2295,4.2283,4.2354,4.2385,4.2449,4.2472,4.2448,4.2566,4.2595,4.2693,4.2721,4.2745,4.2764,4.2733,4.2857,4.2868,4.2879,4.2918,4.2933,4.2751,4.2751,4.275,4.275,0,4.2233,4.2296,4.2347,4.2411,4.2451,4.2519,4.2538,4.2577,4.2577,4.2594,4.2676,4.2711,4.277,4.2793,4.2793,4.2891,4.2877,4.2855,4.2812,4.2898,4.2934,4.2949,4.2756,4.2755,4.2754,4.2753,0,0,4.2355,4.2425,4.2444,4.2473,4.2528,4.2576,4.2643,4.2703,4.2736,4.2781,4.2837,4.2917,4.2898,4.293,4.2933,4.2978,4.3067,4.2951,4.2952,4.2971,4.3178,4.3194,4.3211,4.3059,4.3062,4.3064,4.3174,0,4.246,4.2582,4.2593,4.2701,4.2759,4.2749,4.2808,4.2847,4.2865,4.2916,4.2934,4.2992,4.2961,4.2981,4.3026,4.3047,4.3108,4.3039,4.311,4.3112,4.3099,4.323,4.3247,4.335,4.3188,4.3191,4.3193,0,4.2599,4.2651,4.2765,4.2813,4.2838,4.289,4.2947,4.2996,4.3039,4.3049,4.3087,4.3084,4.3152,4.3107,4.3201,4.3153,4.3183,4.3198,4.3202,4.3208,4.3157,4.324,4.3382,4.3398,4.3215,4.3213,4.3212,0,4.2678,4.2775,4.2856,4.2881,4.2939,4.2976,4.3002,4.3043,4.3079,4.3127,4.315,4.3205,4.3235,4.3277,4.3288,4.3254,4.3382,4.3337,4.3391,4.3391,4.3418,4.3416,4.3567,4.3437,4.3437,4.3437,4.3436,0,4.2794,4.2864,4.2892,4.2942,4.3021,4.3032,4.3109,4.3132,4.3169,4.3222,4.3216,4.3266,4.3278,4.333,4.3339,4.3416,4.3429,4.3438,4.3439,4.3439,4.3438,4.3458,4.3451,4.3441,4.344,4.3439,4.3438,0,4.2894,4.2916,4.3004,4.3052,4.3066,4.3121,4.3162,4.3209,4.3227,4.3294,4.3311,4.3338,4.3399,4.3415,4.3487,4.3493,4.3583,4.3578,4.3569,4.3568,4.3621,4.3616,4.379,4.3813,4.3669,4.367,4.3671,0,4.2967,4.3021,4.3076,4.3113,4.314,4.3198,4.3235,4.3249,4.3287,4.3342,4.3383,4.3443,4.3492,4.359,4.3615,4.367,4.3666,4.3723,4.3674,4.3671,4.3666,4.3663,4.3669,4.3732,4.3733,4.3735,4.3736,0,4.3094,4.3102,4.3157,4.3216,4.3261,4.3307,4.3351,4.3381,4.34,4.3443,4.3507,4.3545,4.362,4.368,4.3736,4.376,4.3751,4.3751,4.3767,4.3766,4.3759,4.3764,4.3594,4.3747,4.3746,4.3745,4.3744,4.3744,4.3182,4.3231,4.3277,4.3338,4.3374,4.3416,4.3463,4.3488,4.3542,4.3605,4.3609,4.3678,4.372,4.3795,4.3823,4.3875,4.3858,4.388,4.3886,4.3891,4.3896,4.3751,4.3885,4.3885,4.3885,4.3885,4.3884,0,4.3309,4.3339,4.3395,4.3459,4.3507,4.3497,4.3546,4.3586,4.3647,4.3689,4.3738,4.3811,4.3869,4.39,4.3957,4.3994,4.3991,4.4008,4.4006,4.4011,4.3908,4.3889,4.401,4.401,4.401,4.401,4.401,4.401,4.338,4.3462,4.3476,4.3574,4.3603,4.3672,4.3701,4.374,4.3773,4.3856,4.3905,4.3925,4.3962,4.4023,4.4075,4.4083,4.4104,4.4124,4.4129,4.4031,4.4019,4.4006,4.3989,4.4128,4.4128,4.4228,4.4229,4.423]}]]